Miscellaneous Local Product
Issued by NWS Hastings, NE

Home | Current Version | Previous Version | Graphics & Text | Print | Product List | Glossary On
Versions: 1 2 3 4 5 6 7 8 9 10 11 12 13 14 15 16 17 18 19 20 21 22 23 24 25 26 27 28 29 30 31 32 33 34 35 36 37 38 39 40 41 42 43 44 45 46 47 48 49 50
000
AXUS43 KGID 280702
MISGRI

GID CWA HOURLY WEATHER ROUNDUP
NATIONAL WEATHER SERVICE HASTINGS NE
200 AM CDT SAT MAR 28 2015

NOTE: "FAIR" INDICATES FEW OR NO CLOUDS BELOW 12,000 FEET WITH NO
SIGNIFICANT WEATHER AND/OR OBSTRUCTIONS TO VISIBILITY.

...SOUTH CENTRAL NEBRASKA...

CITY           SKY/WX    TMP DP  RH WIND       PRES   REMARKS
GRAND ISLAND   PTCLDY    30  23  75 SE5       30.01R WCI  25
HASTINGS       PTCLDY    34  24  67 S7        29.98S WCI  28
KEARNEY        CLEAR     30  21  69 S5        29.99R WCI  25
ORD            CLOUDY    31  24  75 S3        29.98S
YORK           CLOUDY    36  27  69 S9        30.01F WCI  29
AURORA         CLOUDY    35  24  63 S13       29.99F WCI  26
LEXINGTON      CLEAR     34  28  78 CALM      29.97S
HOLDREGE       PTCLDY    37  27  66 S3        29.97S
HEBRON         PTCLDY    35  22  59 NE5       30.02F WCI  30

...NEBRASKA PANHANDLE...

CITY           SKY/WX    TMP DP  RH WIND       PRES   REMARKS
CHADRON        PTCLDY    38  32  79 SW8       29.98S WCI  32
ALLIANCE       PTCLDY    36  30  79 SW7       30.00S WCI  30
SCOTTSBLUFF    CLEAR     38  30  73 W5        30.01F WCI  34
SIDNEY         CLEAR     37  29  72 W7        30.03F WCI  32

...WESTERN AND NORTH CENTRAL NEBRASKA...

CITY           SKY/WX    TMP DP  RH WIND       PRES   REMARKS
VALENTINE      CLEAR     34  29  82 N3        29.97S
AINSWORTH      PTCLDY    40  33  73 CALM      29.97S
ONEILL         PTCLDY    35  29  78 SE5       29.99S WCI  31
BROKEN BOW     PTCLDY    29  26  89 CALM      29.97R
IMPERIAL         N/A     42  31  64 W3        29.99F
NORTH PLATTE   CLEAR     35  31  85 N3        29.98S
MCCOOK         CLOUDY    41  32  70 CALM      29.97F

...EASTERN NEBRASKA...

CITY           SKY/WX    TMP DP  RH WIND       PRES   REMARKS
NORFOLK        CLOUDY    33  26  75 E5        30.04R WCI  29
SO SIOUX CITY  CLOUDY    34  23  64 E9        30.10S WCI  27
TEKAMAH        CLOUDY    36  22  56 E8        30.10R WCI  30
COLUMBUS       MOCLDY    34  19  55 SE7       30.06S WCI  28
ALBION         CLOUDY    33  26  73 SE5       30.01S WCI  29
OMAHA EPPLEY   CLOUDY    36  23  59 SE13      30.09F WCI  27
OFFUTT AFB     CLOUDY    35  25  65 SE8       30.09S WCI  29
MILLARD        CLOUDY    37  22  56 SE8       30.08F WCI  30
LINCOLN        CLOUDY    36  22  56 SE10      30.07R WCI  28
NEBRASKA CITY  CLOUDY    35  22  61 SE6       30.09S WCI  30
BEATRICE       CLOUDY    36  24  62 SE10      30.04F WCI  28
FALLS CITY     CLOUDY    36  25  64 SE6       30.09S WCI  31

...NORTHERN KANSAS...

CITY           SKY/WX    TMP DP  RH WIND       PRES   REMARKS
GOODLAND       CLEAR     46  33  60 W13       30.02F
HILL CITY      PTCLDY    39  32  76 N6        29.97S WCI  35
NORTON         SUNNY     37  27  65 E5        29.96F WCI  34
PHILLIPSBURG   CLEAR     39  30  70 NE5       29.98F
SMITH CENTER   CLEAR     37  28  70 SE8       29.98F WCI  31
BELOIT         CLEAR     41  28  60 SE8       29.99F
HAYS           MOCLDY    43  28  56 E7        29.97F
RUSSELL        PTCLDY    40  33  76 SE8       29.96F WCI  34
CONCORDIA      PTCLDY    38  25  59 E7        30.02S WCI  33
SALINA         CLOUDY    46  31  55 SE7       30.03F
TOPEKA         CLOUDY    39  24  55 SE6       30.10S WCI  35



USA.gov is the U.S. government's official web portal to all federal, state and local government web resources and services.